Yakima, WA
on Monday, February 11, 2013

Monday
Previous Day Next Day
Daily Summary
 ActualAverageRecord
Temperature
Mean Temperature °F 35°F  
Max Temperature 55°F 45°F 61°F (1971)
Min Temperature 22°F 26°F 5°F (1948)
Degree Days
Heating Degree Days 26 30  
Month to date heating degree days 277 335  
Since 1 July heating degree days 3546 4053  
Cooling Degree Days 0 0  
Month to date cooling degree days 0 0  
Year to date cooling degree days 0 0  
Moisture
Dew Point 27°F   
Average Humidity 65    
Maximum Humidity 88    
Minimum Humidity 41    
Precipitation
Precipitation 0.00 in 0.03 in 0.36 in (1958)
Month to date precipitation T 0.32  
Year to date precipitation 0.10 1.46  
Snow
Snow 0.00 in 0.10 in 2.80 in (1954)
Month to date snowfall 0.0 1.2  
Year to date snowfall 1.1 6.5  
Since 1 July snowfall 15.3 19.5  
Snow Depth 0.00 in   
Wind
Wind Speed 3 mph   
Max Wind Speed 16 mph   
Max Gust Speed 20 mph   
Visibility 10 miles   
Events     

Key: T is trace of precipitation, MM is missing value
Source: NWS Daily Summary
Time(PST)TemperatureDew PointHumidity Pressure Visibility Wind DirectionWind SpeedGust SpeedPrecipitationEvents Conditions
12:53 AM 28.0°F 23.0°F 81% 30.22 in 9.0 miles Calm Calm - N/A   Clear
1:53 AM 27.0°F 21.9°F 81% 30.23 in 10.0 miles West 3.5 mph - N/A   Clear
2:53 AM 25.0°F 21.0°F 85% 30.23 in 10.0 miles West 6.9 mph - N/A   Clear
3:53 AM 26.1°F 21.0°F 81% 30.22 in 10.0 miles WNW 6.9 mph - N/A   Clear
4:53 AM 24.1°F 19.9°F 84% 30.22 in 10.0 miles Calm Calm - N/A   Clear
5:53 AM 23.0°F 19.0°F 85% 30.22 in 10.0 miles West 4.6 mph - N/A   Clear
6:53 AM 24.1°F 19.9°F 84% 30.24 in 10.0 miles WSW 3.5 mph - N/A   Clear
7:53 AM 27.0°F 21.9°F 81% 30.23 in 10.0 miles West 6.9 mph - N/A   Clear
8:53 AM 30.9°F 25.0°F 79% 30.24 in 9.0 miles East 3.5 mph - N/A   Partly Cloudy
9:53 AM 35.1°F 28.0°F 76% 30.23 in 10.0 miles East 3.5 mph - N/A   Partly Cloudy
10:53 AM 43.0°F 30.0°F 60% 30.23 in 10.0 miles NE 3.5 mph - N/A   Partly Cloudy
11:53 AM 48.0°F 30.0°F 50% 30.22 in 10.0 miles Calm Calm - N/A   Partly Cloudy
12:53 PM 50.0°F 30.9°F 48% 30.20 in 10.0 miles SE 6.9 mph - N/A   Partly Cloudy
1:53 PM 55.0°F 32.0°F 42% 30.19 in 10.0 miles Variable 4.6 mph - N/A   Partly Cloudy
2:53 PM 53.1°F 33.1°F 47% 30.19 in 10.0 miles SSE 8.1 mph - N/A   Partly Cloudy
3:53 PM 50.0°F 32.0°F 50% 30.21 in 10.0 miles SE 8.1 mph - N/A   Clear
4:53 PM 48.0°F 32.0°F 54% 30.22 in 10.0 miles Calm Calm - N/A   Clear
5:53 PM 46.0°F 30.9°F 56% 30.23 in 10.0 miles Calm Calm - N/A   Clear
6:53 PM 39.9°F 28.9°F 65% 30.25 in 10.0 miles Calm Calm - N/A   Clear
7:53 PM 37.0°F 28.9°F 73% 30.26 in 10.0 miles Calm Calm - N/A   Clear
8:53 PM 37.0°F 28.9°F 73% 30.26 in 10.0 miles Calm Calm - N/A   Partly Cloudy
9:53 PM 36.0°F 28.9°F 76% 30.26 in 10.0 miles Calm Calm - N/A   Clear
10:53 PM 33.1°F 27.0°F 78% 30.27 in 8.0 miles Calm Calm - N/A   Scattered Clouds
11:53 PM 34.0°F 28.0°F 79% 30.27 in 7.0 miles Calm Calm - N/A   Clear
Moon Phase
Feb. 11 Feb. 17 Feb. 25 Mar. 04 Mar. 11
Sunrise:07:11 AM (PST) Moon Rise:07:29 AM (PST)2/11
Sunset:05:21 PM (PST) Moon Set:07:35 PM (PST)2/11

Copyright © 2014 The Weather Underground, Inc.